Location: Canyam�s
(41.5996°N, 2.4450°E)
Time: 01:28:41
(UTC+00:00)

Cosmos 1300 - Pass Details

Date: 06 June 2020
Orbit: 512 x 513 km, 82.5° (Epoch: 11 July)

Event Time Altitude Azimuth Distance (km) Brightness Sun altitude
Rises 22:43:56 0° 5° (N) 2,635 7.4 -23.9°
Reaches altitude 10° 22:46:23 10° 20° (NNE) 1,743 6.1 -24.0°
Enters shadow 22:49:01 23° 62° (ENE) 1,132 4.5 -24.1°
